Location: *
(33.8649°S, 62.1526°E)
Time: 16:48:51
(UTC+00:00)

Cosmos 2151 - Pass Details

Date: 17 January 2021
Orbit: 580 x 602 km, 82.5° (Epoch: 04 March)

Event Time Altitude Azimuth Distance (km) Brightness Sun altitude
Rises 16:47:06 0° 186° (S) 2,849 7.2 -18.5°
Reaches altitude 10° 16:49:20 10° 184° (S) 1,943 6.2 -18.9°
Maximum altitude 16:53:38 80° 97° (E) 611 2.9 -19.5°
Enters shadow 16:54:53 45° 16° (NNE) 816 3.2 -19.7°
